Phoenix, AZ

7:42 PM MST on February 11, 2016 (GMT -0700)
Phoenix-Deer Valley Municipal

Weather History for KDVT - July, 2013

Change the Weather History Date:

Wednesday, July 3, 2013

  Actual Average Record
Temperature  
Mean Temperature 95 °F -  
Max Temperature 106 °F 100 °F 109 °F (2001)
Min Temperature 84 °F 78 °F 66 °F (2004)
Cooling Degree Days 30    
Growing Degree Days 45 (Base 50)    
Moisture  
Dew Point 52 °F    
Average Humidity 24    
Maximum Humidity 36    
Minimum Humidity 15    
Precipitation  
Precipitation 0.00 in - - ()
Sea Level Pressure  
Sea Level Pressure 29.69 in    
Wind  
Wind Speed 7 mph (South)    
Max Wind Speed 13 mph    
Max Gust Speed 22 mph    
Visibility 10 miles    
Events      
Averages and records for this station are not official NWS values.
T = Trace of Precipitation, MM = Missing Value Source: NWS Daily Summary

Daily Weather History Graph

Daily Weather History Graph

Search for Another Location

Airport or City:

Trip Planner

Search our weather history database for the weather conditions in past years. The results will help you decide how hot, cold, wet, or windy it might be!

Date:

Astronomy

Jul. 03, 2013 Rise Set
Actual Time 5:22 AM MST 7:42 PM MST
Civil Twilight 4:53 AM MST 8:11 PM MST
Nautical Twilight 4:18 AM MST 8:46 PM MST
Astronomical Twilight 3:39 AM MST 9:25 PM MST
Moon 1:57 AM MST (7/3) 4:00 PM MST (7/3)
Length of Visible Light 15h 17m
Length of Day
14h 19m
Waning Crescent, 17% of the Moon is Illuminated
Jul 3
Waning Crescent
Jul 8
New
Jul 15
First Quarter
Jul 22
Full
Jul 29
Last Quarter

Hourly Weather History & Observations

Time (MST) Temp. Heat Index Dew Point Humidity Pressure Visibility Wind Dir Wind Speed Gust Speed Precip Events Conditions
12:53 AM 90.0 °F 87.9 °F 55.0 °F 30% 29.75 in 10.0 mi SSE 11.5 mph 16.1 mph N/A   Clear
1:53 AM 88.0 °F 86.1 °F 55.0 °F 32% 29.75 in 10.0 mi SSE 12.7 mph - N/A   Clear
2:53 AM 86.0 °F 84.5 °F 55.0 °F 35% 29.78 in 10.0 mi NE 4.6 mph - N/A   Clear
3:53 AM 86.0 °F 84.5 °F 55.0 °F 35% 29.76 in 10.0 mi East 3.5 mph - N/A   Clear
4:53 AM 84.9 °F 83.6 °F 55.0 °F 36% 29.75 in 10.0 mi East 3.5 mph - N/A   Clear
5:53 AM 84.9 °F 83.6 °F 55.0 °F 36% 29.76 in 10.0 mi NE 4.6 mph - N/A   Clear
6:53 AM 86.0 °F 84.5 °F 55.0 °F 35% 29.78 in 10.0 mi Calm Calm - N/A   Clear
7:53 AM 88.0 °F 86.5 °F 55.9 °F 34% 29.80 in 10.0 mi South 4.6 mph - N/A   Clear
8:53 AM 93.0 °F 90.8 °F 54.0 °F 27% 29.78 in 10.0 mi SSE 8.1 mph - N/A   Clear
9:53 AM 95.0 °F 92.5 °F 53.1 °F 24% 29.77 in 10.0 mi SSE 9.2 mph - N/A   Clear
10:53 AM 97.0 °F 94.6 °F 54.0 °F 23% 29.75 in 10.0 mi South 9.2 mph - N/A   Clear
11:53 AM 99.0 °F 96.5 °F 53.1 °F 21% 29.74 in 10.0 mi East 5.8 mph - N/A   Clear
12:53 PM 102.0 °F 99.7 °F 53.1 °F 19% 29.71 in 10.0 mi South 11.5 mph - N/A   Clear
1:53 PM 102.0 °F - 52.0 °F 19% 29.69 in 10.0 mi South 6.9 mph - N/A   Clear
2:53 PM 105.1 °F - 50.0 °F 16% 29.66 in 10.0 mi West 8.1 mph - N/A   Clear
3:53 PM 105.1 °F - 50.0 °F 16% 29.62 in 10.0 mi NW 8.1 mph 21.9 mph N/A   Clear
4:53 PM 105.1 °F - 50.0 °F 16% 29.58 in 10.0 mi WSW 9.2 mph - N/A   Clear
5:53 PM 106.0 °F - 50.0 °F 15% 29.57 in 10.0 mi West 8.1 mph - N/A   Clear
6:53 PM 105.1 °F - 50.0 °F 16% 29.57 in 10.0 mi WNW 6.9 mph - N/A   Clear
7:53 PM 102.9 °F - 50.0 °F 17% 29.57 in 10.0 mi South 5.8 mph - N/A   Clear
8:53 PM 100.9 °F - 48.9 °F 17% 29.59 in 10.0 mi Variable 3.5 mph - N/A   Clear
9:53 PM 98.1 °F - 48.9 °F 19% 29.59 in 10.0 mi Calm Calm - N/A   Clear
10:53 PM 93.9 °F - 48.9 °F 21% 29.60 in 10.0 mi NW 5.8 mph - N/A   Clear
11:53 PM 95.0 °F - 50.0 °F 22% 29.60 in 10.0 mi WNW 6.9 mph - N/A   Clear